Time,TemperatureF,DewpointF,PressureIn,WindDirection,WindDirectionDegrees,WindSpeedMPH,WindSpeedGustMPH,Humidity,HourlyPrecipIn,Conditions,Clouds,dailyrainin,SoftwareType,DateUTC
2013-10-28 00:00:00,82.0,77.7,29.92,NE,55,6.0,13.0,87,0.00,RA,,0.00,WeatherDisplay:10.37,2013-10-28 06:00:00,
2013-10-28 00:15:00,82.0,78.1,29.91,ENE,60,7.0,13.0,88,0.00,CLR,,0.00,WeatherDisplay:10.37,2013-10-28 06:15:00,
2013-10-28 00:30:00,81.7,77.8,29.90,ENE,63,6.0,14.0,88,0.00,CLR,,0.00,WeatherDisplay:10.37,2013-10-28 06:30:00,
2013-10-28 00:45:00,81.8,77.9,29.89,ENE,70,8.0,13.0,88,0.00,CLR,,0.00,WeatherDisplay:10.37,2013-10-28 06:45:00,
2013-10-28 01:00:00,82.1,77.8,29.89,ENE,75,6.0,13.0,87,0.00,CLR,,0.00,WeatherDisplay:10.37,2013-10-28 07:00:00,
2013-10-28 01:15:00,82.1,78.2,29.89,ENE,71,6.0,13.0,88,0.00,CLR,,0.00,WeatherDisplay:10.37,2013-10-28 07:15:00,
2013-10-28 01:30:00,82.2,78.3,29.88,ENE,64,5.0,13.0,88,0.00,CLR,,0.00,WeatherDisplay:10.37,2013-10-28 07:30:00,
2013-10-28 01:45:00,82.1,78.2,29.88,ENE,69,5.0,12.0,88,0.00,CLR,,0.00,WeatherDisplay:10.37,2013-10-28 07:45:00,
2013-10-28 02:00:00,82.2,77.9,29.89,ENE,77,7.0,13.0,87,0.00,CLR,,0.00,WeatherDisplay:10.37,2013-10-28 08:00:00,
2013-10-28 02:15:00,82.4,78.1,29.88,East,81,8.0,15.0,87,0.00,CLR,,0.00,WeatherDisplay:10.37,2013-10-28 08:15:00,
2013-10-28 02:30:00,81.8,76.9,29.88,East,81,17.0,21.0,85,0.00,CLR,,0.00,WeatherDisplay:10.37,2013-10-28 08:30:00,
2013-10-28 02:45:00,79.7,75.8,29.88,ENE,67,5.0,21.0,88,0.01,CLR,,0.01,WeatherDisplay:10.37,2013-10-28 08:45:00,
2013-10-28 03:00:00,80.1,76.2,29.87,East,96,8.0,21.0,88,0.00,CLR,,0.01,WeatherDisplay:10.37,2013-10-28 09:00:00,
2013-10-28 03:15:00,81.4,77.8,29.88,NE,56,6.0,21.0,89,0.00,CLR,,0.01,WeatherDisplay:10.37,2013-10-28 09:15:00,
2013-10-28 03:30:00,81.2,78.0,29.88,ENE,63,6.0,21.0,90,0.00,CLR,,0.01,WeatherDisplay:10.37,2013-10-28 09:30:00,
2013-10-28 03:45:00,81.0,76.7,29.88,East,98,16.0,22.0,87,0.00,CLR,,0.01,WeatherDisplay:10.37,2013-10-28 09:45:00,
2013-10-28 04:00:00,78.5,75.3,29.89,ENE,69,5.0,16.0,90,0.05,CLR,,0.06,WeatherDisplay:10.37,2013-10-28 10:00:00,
2013-10-28 04:15:00,78.8,75.2,29.89,ENE,71,9.0,14.0,89,0.00,CLR,,0.06,WeatherDisplay:10.37,2013-10-28 10:15:00,
2013-10-28 04:30:00,79.1,75.6,29.90,ENE,77,13.0,21.0,89,0.00,CLR,,0.06,WeatherDisplay:10.37,2013-10-28 10:30:00,
2013-10-28 04:45:00,78.9,75.7,29.90,ENE,75,8.0,14.0,90,0.00,CLR,,0.06,WeatherDisplay:10.37,2013-10-28 10:45:00,
2013-10-28 05:00:00,79.4,76.2,29.90,East,93,2.0,13.0,90,0.00,CLR,,0.06,WeatherDisplay:10.37,2013-10-28 11:00:00,
2013-10-28 05:15:00,79.8,76.6,29.91,ESE,114,3.0,9.0,90,0.00,CLR,,0.06,WeatherDisplay:10.37,2013-10-28 11:15:00,
2013-10-28 05:30:00,79.7,76.8,29.92,East,99,3.0,10.0,91,0.02,RA,,0.08,WeatherDisplay:10.37,2013-10-28 11:30:00,
2013-10-28 05:45:00,79.4,77.2,29.93,ESE,112,5.0,12.0,93,0.03,RA,,0.11,WeatherDisplay:10.37,2013-10-28 11:45:00,
2013-10-28 06:00:00,78.4,76.2,29.93,East,99,2.0,7.0,93,0.01,RA,,0.12,WeatherDisplay:10.37,2013-10-28 12:00:00,
2013-10-28 06:15:00,78.3,76.1,29.93,ESE,105,3.0,6.0,93,0.02,RA,,0.14,WeatherDisplay:10.37,2013-10-28 12:15:00,
2013-10-28 06:30:00,78.7,76.5,29.93,East,93,2.0,8.0,93,0.01,RA,,0.15,WeatherDisplay:10.37,2013-10-28 12:30:00,
2013-10-28 06:45:00,79.6,77.4,29.93,East,88,7.0,9.0,93,0.00,CLR,,0.15,WeatherDisplay:10.37,2013-10-28 12:45:00,
2013-10-28 07:00:00,80.6,78.0,29.94,East,96,2.0,12.0,92,0.00,CLR,,0.15,WeatherDisplay:10.37,2013-10-28 13:00:00,
2013-10-28 07:15:00,81.4,78.2,29.94,East,99,2.0,10.0,90,0.00,CLR,,0.15,WeatherDisplay:10.37,2013-10-28 13:15:00,
2013-10-28 07:30:00,81.2,77.6,29.95,East,90,8.0,24.0,89,0.02,,,0.18,WeatherDisplay:10.37,2013-10-28 13:30:00,
2013-10-28 07:45:00,82.0,78.0,29.95,East,90,10.0,14.0,88,0.00,CLR,,0.18,WeatherDisplay:10.37,2013-10-28 13:45:00,
2013-10-28 08:00:00,83.1,78.1,29.96,East,85,8.0,13.0,85,0.00,CLR,,0.18,WeatherDisplay:10.37,2013-10-28 14:00:00,
2013-10-28 08:15:00,83.6,79.0,29.96,East,85,8.0,13.0,86,0.00,CLR,,0.18,WeatherDisplay:10.37,2013-10-28 14:15:00,
2013-10-28 08:30:00,79.1,76.2,29.97,ESE,119,17.0,31.0,91,0.15,RA,,0.33,WeatherDisplay:10.37,2013-10-28 14:30:00,
2013-10-28 08:45:00,79.5,77.0,29.97,ESE,113,16.0,22.0,92,0.04,,,0.37,WeatherDisplay:10.37,2013-10-28 14:45:00,
2013-10-28 09:00:00,80.9,77.7,29.98,ESE,110,16.0,22.0,90,0.00,CLR,,0.37,WeatherDisplay:10.37,2013-10-28 15:00:00,
2013-10-28 09:15:00,81.4,77.5,29.98,ESE,115,8.0,22.0,88,0.01,RA,,0.38,WeatherDisplay:10.37,2013-10-28 15:15:00,
2013-10-28 09:30:00,81.8,77.6,29.98,ESE,116,14.0,19.0,87,0.00,CLR,,0.38,WeatherDisplay:10.37,2013-10-28 15:30:00,
2013-10-28 09:45:00,82.3,77.7,29.99,ESE,111,9.0,18.0,86,0.00,CLR,,0.38,WeatherDisplay:10.37,2013-10-28 15:45:00,
2013-10-28 10:00:00,82.3,77.7,29.99,ESE,104,12.0,16.0,86,0.00,CLR,,0.38,WeatherDisplay:10.37,2013-10-28 16:00:00,
2013-10-28 10:15:00,82.9,77.5,29.98,ESE,114,13.0,18.0,84,0.00,CLR,,0.38,WeatherDisplay:10.37,2013-10-28 16:15:00,
2013-10-28 10:30:00,83.1,77.8,29.98,ESE,112,12.0,16.0,84,0.00,CLR,,0.38,WeatherDisplay:10.37,2013-10-28 16:30:00,
2013-10-28 10:45:00,83.4,78.1,29.98,East,101,6.0,15.0,84,0.00,CLR,,0.38,WeatherDisplay:10.37,2013-10-28 16:45:00,
2013-10-28 11:00:00,83.5,78.2,29.97,ESE,114,12.0,15.0,84,0.00,CLR,,0.38,WeatherDisplay:10.37,2013-10-28 17:00:00,
2013-10-28 11:15:00,83.5,78.5,29.97,ESE,108,10.0,15.0,85,0.00,CLR,,0.38,WeatherDisplay:10.37,2013-10-28 17:15:00,
2013-10-28 11:30:00,83.8,78.4,29.96,ESE,104,7.0,16.0,84,0.00,CLR,,0.38,WeatherDisplay:10.37,2013-10-28 17:30:00,
2013-10-28 11:45:00,83.3,78.3,29.95,East,98,10.0,14.0,85,0.00,CLR,,0.38,WeatherDisplay:10.37,2013-10-28 17:45:00,
2013-10-28 12:00:00,83.6,77.9,29.94,ESE,104,10.0,18.0,83,0.00,CLR,,0.38,WeatherDisplay:10.37,2013-10-28 18:00:00,
2013-10-28 12:15:00,83.3,77.6,29.93,ESE,110,14.0,20.0,83,0.00,CLR,,0.38,WeatherDisplay:10.37,2013-10-28 18:15:00,
2013-10-28 12:30:00,83.4,77.3,29.92,ESE,120,13.0,19.0,82,0.00,CLR,,0.38,WeatherDisplay:10.37,2013-10-28 18:30:00,
2013-10-28 12:45:00,83.7,77.6,29.92,ESE,121,15.0,16.0,82,0.00,CLR,,0.38,WeatherDisplay:10.37,2013-10-28 18:45:00,
2013-10-28 13:00:00,83.6,77.1,29.91,ESE,120,13.0,16.0,81,0.00,CLR,,0.38,WeatherDisplay:10.37,2013-10-28 19:00:00,
2013-10-28 13:15:00,83.3,78.0,29.91,ESE,118,13.0,18.0,84,0.00,CLR,,0.38,WeatherDisplay:10.37,2013-10-28 19:15:00,
2013-10-28 13:30:00,83.8,77.3,29.91,ESE,120,12.0,15.0,81,0.00,CLR,,0.38,WeatherDisplay:10.37,2013-10-28 19:30:00,
2013-10-28 13:45:00,83.4,77.7,29.91,ESE,116,12.0,16.0,83,0.00,CLR,,0.38,WeatherDisplay:10.37,2013-10-28 19:45:00,
2013-10-28 14:00:00,83.6,77.5,29.91,ESE,114,14.0,16.0,82,0.00,CLR,,0.38,WeatherDisplay:10.37,2013-10-28 20:00:00,
2013-10-28 14:15:00,83.3,76.9,29.91,ESE,118,16.0,18.0,81,0.00,CLR,,0.38,WeatherDisplay:10.37,2013-10-28 20:15:00,
2013-10-28 14:30:00,83.0,77.3,29.91,ESE,114,13.0,18.0,83,0.00,CLR,,0.38,WeatherDisplay:10.37,2013-10-28 20:30:00,
2013-10-28 14:45:00,82.9,76.9,29.91,ESE,108,12.0,16.0,82,0.00,CLR,,0.38,WeatherDisplay:10.37,2013-10-28 20:45:00,
2013-10-28 15:00:00,83.4,77.3,29.90,ESE,102,9.0,16.0,82,0.00,CLR,,0.38,WeatherDisplay:10.37,2013-10-28 21:00:00,
2013-10-28 15:15:00,83.2,77.1,29.90,East,99,8.0,15.0,82,0.00,CLR,,0.38,WeatherDisplay:10.37,2013-10-28 21:15:00,
2013-10-28 15:30:00,82.9,77.2,29.90,East,92,8.0,15.0,83,0.00,CLR,,0.38,WeatherDisplay:10.37,2013-10-28 21:30:00,
2013-10-28 15:45:00,82.9,77.6,29.90,East,93,12.0,18.0,84,0.00,CLR,,0.38,WeatherDisplay:10.37,2013-10-28 21:45:00,
2013-10-28 16:00:00,82.9,77.2,29.90,East,100,7.0,19.0,83,0.00,CLR,,0.38,WeatherDisplay:10.37,2013-10-28 22:00:00,
2013-10-28 16:15:00,83.1,77.0,29.90,East,90,6.0,19.0,82,0.00,CLR,,0.38,WeatherDisplay:10.37,2013-10-28 22:15:00,
2013-10-28 16:26:00,83.0,77.3,29.90,East,100,7.0,18.0,83,0.00,CLR,,0.38,WeatherDisplay:10.37,2013-10-28 22:26:00,
2013-10-28 16:45:00,82.7,77.4,29.89,ESE,102,7.0,16.0,84,0.00,CLR,,0.38,WeatherDisplay:10.37,2013-10-28 22:45:00,
2013-10-28 17:00:00,82.7,77.0,29.90,ESE,107,9.0,14.0,83,0.00,CLR,,0.38,WeatherDisplay:10.37,2013-10-28 23:00:00,
2013-10-28 17:15:00,82.7,77.8,29.91,East,101,9.0,16.0,85,0.00,CLR,,0.38,WeatherDisplay:10.37,2013-10-28 23:15:00,
2013-10-28 17:30:00,82.7,77.4,29.91,East,96,8.0,15.0,84,0.00,CLR,,0.38,WeatherDisplay:10.37,2013-10-28 23:30:00,
2013-10-28 17:45:00,82.8,77.5,29.91,ESE,113,9.0,15.0,84,0.00,CLR,,0.38,WeatherDisplay:10.37,2013-10-28 23:45:00,
2013-10-28 18:00:00,82.8,77.5,29.92,ESE,115,9.0,13.0,84,0.00,CLR,,0.38,WeatherDisplay:10.37,2013-10-29 00:00:00,
2013-10-28 18:15:00,82.9,77.6,29.93,ESE,112,8.0,14.0,84,0.00,CLR,,0.38,WeatherDisplay:10.37,2013-10-29 00:15:00,
2013-10-28 18:30:00,83.0,78.0,29.93,ESE,105,7.0,14.0,85,0.00,CLR,,0.38,WeatherDisplay:10.37,2013-10-29 00:30:00,
2013-10-28 18:45:00,83.0,77.7,29.95,East,89,15.0,18.0,84,0.00,CLR,,0.38,WeatherDisplay:10.37,2013-10-29 00:45:00,
2013-10-28 19:00:00,83.3,78.0,29.95,East,92,9.0,20.0,84,0.00,CLR,,0.38,WeatherDisplay:10.37,2013-10-29 01:00:00,
2013-10-28 19:15:00,83.3,77.2,29.96,East,93,9.0,21.0,82,0.00,CLR,,0.38,WeatherDisplay:10.37,2013-10-29 01:15:00,
2013-10-28 19:30:00,83.3,78.0,29.96,East,91,12.0,18.0,84,0.00,CLR,,0.38,WeatherDisplay:10.37,2013-10-29 01:30:00,
2013-10-28 19:45:00,82.8,77.8,29.97,ENE,67,9.0,18.0,85,0.00,CLR,,0.38,WeatherDisplay:10.37,2013-10-29 01:45:00,
2013-10-28 20:00:00,82.3,78.0,29.98,East,83,10.0,19.0,87,0.00,CLR,,0.38,WeatherDisplay:10.37,2013-10-29 02:00:00,
2013-10-28 20:15:00,82.7,77.7,29.98,East,82,13.0,21.0,85,0.00,CLR,,0.38,WeatherDisplay:10.37,2013-10-29 02:15:00,
2013-10-28 20:30:00,82.8,77.8,29.98,East,85,14.0,19.0,85,0.00,CLR,,0.38,WeatherDisplay:10.37,2013-10-29 02:30:00,
2013-10-28 20:45:00,82.6,77.6,29.99,East,79,13.0,18.0,85,0.00,CLR,,0.38,WeatherDisplay:10.37,2013-10-29 02:45:00,
2013-10-28 21:00:00,82.6,77.6,29.99,East,88,7.0,15.0,85,0.00,CLR,,0.38,WeatherDisplay:10.37,2013-10-29 03:00:00,
2013-10-28 21:15:00,82.7,77.4,29.98,East,84,9.0,14.0,84,0.00,CLR,,0.38,WeatherDisplay:10.37,2013-10-29 03:15:00,
2013-10-28 21:30:00,82.8,77.5,29.98,East,101,3.0,14.0,84,0.00,CLR,,0.38,WeatherDisplay:10.37,2013-10-29 03:30:00,
2013-10-28 21:45:00,82.8,77.5,29.98,East,85,6.0,14.0,84,0.00,CLR,,0.38,WeatherDisplay:10.37,2013-10-29 03:45:00,
2013-10-28 22:00:00,82.8,77.5,29.98,ESE,103,6.0,14.0,84,0.00,CLR,,0.38,WeatherDisplay:10.37,2013-10-29 04:00:00,
2013-10-28 22:15:00,82.9,77.9,29.98,East,91,9.0,15.0,85,0.00,CLR,,0.38,WeatherDisplay:10.37,2013-10-29 04:15:00,
2013-10-28 22:30:00,82.9,77.5,29.98,East,94,10.0,16.0,84,0.00,CLR,,0.38,WeatherDisplay:10.37,2013-10-29 04:30:00,
2013-10-28 22:45:00,83.0,77.6,29.98,East,85,9.0,16.0,84,0.00,CLR,,0.38,WeatherDisplay:10.37,2013-10-29 04:45:00,
2013-10-28 23:00:00,82.9,77.9,29.97,East,79,6.0,14.0,85,0.00,CLR,,0.38,WeatherDisplay:10.37,2013-10-29 05:00:00,
2013-10-28 23:15:00,82.8,77.8,29.97,ENE,77,9.0,14.0,85,0.00,CLR,,0.38,WeatherDisplay:10.37,2013-10-29 05:15:00,
2013-10-28 23:30:00,82.5,77.9,29.96,ENE,61,6.0,13.0,86,0.02,RA,,0.40,WeatherDisplay:10.37,2013-10-29 05:30:00,
2013-10-28 23:45:00,81.6,78.0,29.95,ENE,68,5.0,12.0,89,0.00,CLR,,0.40,WeatherDisplay:10.37,2013-10-29 05:45:00,